This demonstration page uses our WeatherBlox Daily Observations layout. Learn more.

Hourly Observations for August 23, 2017

Temp ( °F °C ) Dew Point ( °F °C ) Humidity (%) Winds ( mph kmh ) Pressure ( in mb ) Visibility ( mi km ) Precip ( " mm )
12:15 am 00:15 Cloudy 77 25 72 22 83 83 NNW 10 17 29.85 1011 10 16.09344 0 0
12:35 am 00:35 Cloudy 75 24 72 22 89 89 WNW 6 9 29.85 1011 10 16.09344 0 0
12:55 am 00:55 Cloudy 75 24 72 22 89 89 NW 5 7 29.85 1011 10 16.09344 0 0
1:15 am 01:15 Cloudy 75 24 72 22 89 89 NW 5 7 29.83 1010 10 16.09344 0 0
1:35 am 01:35 Partly Cloudy 75 24 72 22 89 89 WNW 5 7 29.85 1011 10 16.09344 0 0
1:55 am 01:55 Clear 75 24 72 22 89 89 Calm 29.83 1010 10 16.09344 0 0
2:15 am 02:15 Partly Cloudy 75 24 72 22 89 89 W 6 9 29.83 1010 10 16.09344 0 0
2:35 am 02:35 Cloudy 75 24 72 22 89 89 WNW 7 11 29.83 1010 10 16.09344 0 0
2:55 am 02:55 Cloudy 77 25 72 22 83 83 NW 12 19 29.83 1010 10 16.09344 0 0
3:15 am 03:15 Cloudy 77 25 72 22 83 83 NW 13 20 29.83 1010 10 16.09344 0 0
3:35 am 03:35 Cloudy with Light Drizzle 75 24 72 22 89 89 WNW 9 15 29.83 1010 10 16.09344 0 0
3:55 am 03:55 Mostly Cloudy 73 23 70 21 89 89 WNW 6 9 29.83 1010 10 16.09344 0 0
4:15 am 04:15 Cloudy 73 23 70 21 89 89 WNW 6 9 29.83 1010 10 16.09344 0 0
4:35 am 04:35 Mostly Cloudy 75 24 70 21 83 83 NW 8 13 29.83 1010 10 16.09344 0 0
4:55 am 04:55 Partly Cloudy with Light Rain 73 23 72 22 94 94 NNW 8 13 29.83 1010 10 16.09344 0 0
5:15 am 05:15 Partly Cloudy 73 23 72 22 94 94 NW 3 6 29.83 1010 10 16.09344 0 0
5:35 am 05:35 Mostly Cloudy 73 23 72 22 94 94 W 5 7 29.85 1011 10 16.09344 0 0
5:55 am 05:55 Cloudy 73 23 72 22 94 94 W 5 7 29.85 1011 10 16.09344 0 0
6:15 am 06:15 Mostly Cloudy 73 23 70 21 89 89 NW 3 6 29.85 1011 10 16.09344 0 0
6:35 am 06:35 Sunny 73 23 70 21 89 89 Calm 29.85 1011 10 16.09344 0 0
6:55 am 06:55 Sunny 73 23 72 22 94 94 Calm 29.88 1012 10 16.09344 0 0
7:15 am 07:15 Sunny 73 23 72 22 94 94 W 3 6 29.88 1012 10 16.09344 0 0
7:35 am 07:35 Partly Cloudy 75 24 72 22 89 89 WNW 5 7 29.88 1012 10 16.09344 0 0
7:55 am 07:55 Mostly Cloudy 75 24 72 22 89 89 N 3 6 29.88 1012 10 16.09344 0 0
8:15 am 08:15 Mostly Cloudy 77 25 70 21 79 79 NNW 8 13 29.88 1012 10 16.09344 0 0
8:35 am 08:35 Cloudy 75 24 70 21 83 83 N 8 13 29.91 1013 10 16.09344 0 0
8:55 am 08:55 Cloudy 75 24 70 21 83 83 NNW 12 19 29.91 1013 10 16.09344 0 0
9:15 am 09:15 Mostly Cloudy 75 24 70 21 83 83 N 7 11 29.91 1013 10 16.09344 0 0
9:35 am 09:35 Partly Cloudy 75 24 70 21 83 83 N 8 13 29.91 1013 10 16.09344 0 0
9:55 am 09:55 Partly Cloudy 77 25 70 21 79 79 NNW 13 20 29.91 1013 10 16.09344 0 0
10:15 am 10:15 Mostly Cloudy 79 26 70 21 74 74 NNW 7 11 29.91 1013 10 16.09344 0 0
10:35 am 10:35 Cloudy 79 26 70 21 74 74 N 9 15 29.91 1013 10 16.09344 0 0
10:55 am 10:55 Cloudy 79 26 68 20 70 70 N 9 15 29.91 1013 10 16.09344 0 0
11:15 am 11:15 Mostly Cloudy 79 26 70 21 74 74 N 7 11 29.91 1013 10 16.09344 0 0
11:35 am 11:35 Cloudy 81 27 68 20 66 66 N 9 15 29.94 1014 10 16.09344 0 0
11:55 am 11:55 Mostly Cloudy 81 27 70 21 70 70 NNW 12 19 29.94 1014 10 16.09344 0 0
12:15 pm 12:15 Mostly Cloudy 81 27 64 18 58 58 N 9 15 29.94 1014 10 16.09344 0 0
12:35 pm 12:35 Partly Cloudy 81 27 64 18 58 58 NNW 7 11 29.91 1013 10 16.09344 0 0
12:55 pm 12:55 Sunny 81 27 64 18 58 58 N 8 13 29.91 1013 10 16.09344 0 0
1:15 pm 13:15 Partly Cloudy 81 27 64 18 58 58 NW 9 15 29.91 1013 10 16.09344 0 0
1:35 pm 13:35 Mostly Cloudy 81 27 64 18 58 58 NNW 10 17 29.91 1013 10 16.09344 0 0
1:55 pm 13:55 Mostly Cloudy 81 27 66 19 62 62 NW 7 11 29.91 1013 10 16.09344 0 0
2:15 pm 14:15 Mostly Cloudy 81 27 64 18 58 58 NE 7 11 29.91 1013 10 16.09344 0 0
2:35 pm 14:35 Partly Cloudy 82 28 64 18 55 55 N 9 15 29.91 1013 10 16.09344 0 0
2:55 pm 14:55 Sunny 82 28 63 17 51 51 NNE 10 17 29.91 1013 10 16.09344 0 0
3:15 pm 15:15 Sunny 82 28 63 17 51 51 N 12 19 29.88 1012 10 16.09344 0 0
3:35 pm 15:35 Sunny 82 28 63 17 51 51 N 10 17 29.88 1012 10 16.09344 0 0
3:55 pm 15:55 Sunny 82 28 63 17 51 51 N 9 15 29.88 1012 10 16.09344 0 0
4:15 pm 16:15 Sunny 82 28 63 17 51 51 NNE 6 9 29.88 1012 10 16.09344 0 0
4:35 pm 16:35 Sunny 82 28 63 17 51 51 N 6 9 29.88 1012 10 16.09344 0 0
4:55 pm 16:55 Partly Cloudy 82 28 63 17 51 51 NNE 10 17 29.88 1012 10 16.09344 0 0
5:15 pm 17:15 Partly Cloudy 82 28 63 17 51 51 NNE 7 11 29.88 1012 10 16.09344 0 0
5:35 pm 17:35 Partly Cloudy 82 28 63 17 51 51 NNE 9 15 29.88 1012 10 16.09344 0 0
5:55 pm 17:55 Partly Cloudy 82 28 61 16 48 48 NE 7 11 29.88 1012 10 16.09344 0 0
6:15 pm 18:15 Sunny 81 27 63 17 54 54 NE 8 13 29.88 1012 10 16.09344 0 0
6:35 pm 18:35 Sunny 81 27 63 17 54 54 NNE 7 11 29.88 1012 10 16.09344 0 0
6:55 pm 18:55 Sunny 81 27 63 17 54 54 NE 6 9 29.88 1012 10 16.09344 0 0
7:15 pm 19:15 Sunny 81 27 61 16 51 51 NE 5 7 29.88 1012 10 16.09344 0 0
7:35 pm 19:35 Sunny 79 26 63 17 58 58 NNE 5 7 29.91 1013 10 16.09344 0 0
7:55 pm 19:55 Clear 79 26 61 16 54 54 NNE 3 6 29.91 1013 10 16.09344 0 0
8:15 pm 20:15 Mostly Cloudy 79 26 63 17 58 58 NNE 3 6 29.91 1013 10 16.09344 0 0
8:35 pm 20:35 Cloudy 77 25 63 17 61 61 N 6 9 29.91 1013 10 16.09344 0 0
8:55 pm 20:55 Cloudy 77 25 61 16 57 57 NNE 5 7 29.91 1013 10 16.09344 0 0
9:15 pm 21:15 Cloudy 77 25 61 16 57 57 N 6 9 29.94 1014 10 16.09344 0 0
9:35 pm 21:35 Cloudy 75 24 61 16 61 61 N 7 11 29.94 1014 10 16.09344 0 0
9:55 pm 21:55 Cloudy 75 24 59 15 57 57 N 6 9 29.94 1014 10 16.09344 0 0
10:15 pm 22:15 Cloudy 73 23 61 16 65 65 N 5 7 29.94 1014 10 16.09344 0 0
10:35 pm 22:35 Mostly Cloudy 73 23 61 16 65 65 N 5 7 29.94 1014 10 16.09344 0 0
10:55 pm 22:55 Partly Cloudy 72 22 61 16 69 69 NNW 3 6 29.94 1014 10 16.09344 0 0
11:15 pm 23:15 Clear 72 22 63 17 73 73 Calm 29.94 1014 10 16.09344 0 0
11:35 pm 23:35 Partly Cloudy 68 20 63 17 83 83 Calm 29.94 1014 10 16.09344 0 0
11:55 pm 23:55 Partly Cloudy 68 20 63 17 83 83 Calm 29.94 1014 10 16.09344 0 0

Powered by AerisWeather